Accueil
METAR-TAF:

METAR-TAF

Aéroports :

Emmen, Suisse

latitude: 47-05-32N, longitude: 8-18-16E, altitude: 426 m

Observation

Le bulletin a été fait il y a 42 minutes, à 23:57 UTC
Vent 1 kt de direction variable
Température 12°C
Humidité 94%
Pression 1021 hPa
Visibilité: 0550 m
Quelques nuages à une hauteur de 100 ft
bancs de brouillard

METAR: LSME 232357Z AUTO VRB01KT 0550NDV R04/0650VP2000D R22/0450V0800U BCFG FEW001 12/11 Q1021 RMK

Heure: 02:39 (00:39 UTC)


TAF: absent

Observations et prévisions météorologiques de plus de 4000 aéroports (messages METAR et TAF).

Les stations disponibles sont représentées par des disques jaunes et rouges sur la carte.

Passer la souris dessus pour voir le nom de la station.

Cliquer dessus pour voir les observations et prévisions météorologiques.

Pour changer de carte: cliquez sur les boutons verts avec une croix noire pour zoomer, sur le bouton vert avec un tiret pour effectuer un zoom arrière, ou sur les flèches vertes pour les cartes adjacentes.


METAR-TAF: